Data supplied by UK-AIR on 26/3/2021
All Data GMT hour ending 
Status: R =Ratified P=Provisional,P*=As supplied
,,London Westminster,,,,,,,,,,,,,,,,,,,,,,,
Date,time,"Nitric oxide",status,unit,"Nitrogen dioxide",status,unit,"Nitrogen oxides as nitrogen dioxide",status,unit,"PM<sub>2.5</sub> particulate matter (Hourly measured)",status,unit
 
01-01-2020,01:00,15.24691,R,ugm-3,46.18613,R,ugm-3,69.56440,R,ugm-3,42.000,R,ugm-3 (BAM)
01-01-2020,02:00,17.63596,R,ugm-3,44.73371,R,ugm-3,71.77513,R,ugm-3,48.000,R,ugm-3 (BAM)
01-01-2020,03:00,18.69909,R,ugm-3,44.28266,R,ugm-3,72.95419,R,ugm-3,52.000,R,ugm-3 (BAM)
01-01-2020,04:00,16.54894,R,ugm-3,41.27891,R,ugm-3,66.65360,R,ugm-3,48.000,R,ugm-3 (BAM)
01-01-2020,05:00,2.75219,R,ugm-3,30.76489,R,ugm-3,34.98485,R,ugm-3,43.000,R,ugm-3 (BAM)
01-01-2020,06:00,4.29312,R,ugm-3,36.58187,R,ugm-3,43.16457,R,ugm-3,41.000,R,ugm-3 (BAM)
01-01-2020,07:00,4.61564,R,ugm-3,37.80066,R,ugm-3,44.87788,R,ugm-3,39.000,R,ugm-3 (BAM)
01-01-2020,08:00,7.15998,R,ugm-3,41.69223,R,ugm-3,52.67072,R,ugm-3,39.000,R,ugm-3 (BAM)
01-01-2020,09:00,39.08962,R,ugm-3,46.23388,R,ugm-3,106.17046,R,ugm-3,42.000,R,ugm-3 (BAM)
01-01-2020,10:00,59.44432,R,ugm-3,48.79273,R,ugm-3,139.93941,R,ugm-3,41.000,R,ugm-3 (BAM)
01-01-2020,11:00,56.89998,R,ugm-3,50.04111,R,ugm-3,137.28653,R,ugm-3,36.000,R,ugm-3 (BAM)
01-01-2020,12:00,43.81994,R,ugm-3,48.59751,R,ugm-3,115.78715,R,ugm-3,37.000,R,ugm-3 (BAM)
01-01-2020,13:00,29.84400,R,ugm-3,50.62780,R,ugm-3,96.38796,R,ugm-3,38.000,R,ugm-3 (BAM)
01-01-2020,14:00,9.99100,R,ugm-3,43.87306,R,ugm-3,59.19238,R,ugm-3,36.000,R,ugm-3 (BAM)
01-01-2020,15:00,12.85786,R,ugm-3,46.05420,R,ugm-3,65.76931,R,ugm-3,39.000,R,ugm-3 (BAM)
01-01-2020,16:00,5.94157,R,ugm-3,39.96800,R,ugm-3,49.07828,R,ugm-3,33.000,R,ugm-3 (BAM)
01-01-2020,17:00,5.26069,R,ugm-3,42.00683,R,ugm-3,50.07311,R,ugm-3,33.000,R,ugm-3 (BAM)
01-01-2020,18:00,3.68391,R,ugm-3,45.08774,R,ugm-3,50.73632,R,ugm-3,32.000,R,ugm-3 (BAM)
01-01-2020,19:00,6.51494,R,ugm-3,45.77631,R,ugm-3,55.76574,R,ugm-3,34.000,R,ugm-3 (BAM)
01-01-2020,20:00,2.89553,R,ugm-3,43.09102,R,ugm-3,47.53076,R,ugm-3,30.000,R,ugm-3 (BAM)
01-01-2020,21:00,3.28972,R,ugm-3,46.07904,R,ugm-3,51.12320,R,ugm-3,27.000,R,ugm-3 (BAM)
01-01-2020,22:00,3.18221,R,ugm-3,45.24905,R,ugm-3,50.12837,R,ugm-3,22.000,R,ugm-3 (BAM)
01-01-2020,23:00,1.06791,R,ugm-3,30.36293,R,ugm-3,32.00036,R,ugm-3,24.000,R,ugm-3 (BAM)
01-01-2020,24:00,1.17541,R,ugm-3,26.55038,R,ugm-3,28.35265,R,ugm-3,23.000,R,ugm-3 (BAM)
02-01-2020,01:00,0.72155,R,ugm-3,18.13027,R,ugm-3,19.23663,R,ugm-3,17.000,R,ugm-3 (BAM)
02-01-2020,02:00,0.53041,R,ugm-3,17.90742,R,ugm-3,18.72070,R,ugm-3,12.000,R,ugm-3 (BAM)
02-01-2020,03:00,0.63792,R,ugm-3,16.82127,R,ugm-3,17.79941,R,ugm-3,17.000,R,ugm-3 (BAM)
02-01-2020,04:00,0.56625,R,ugm-3,13.78035,R,ugm-3,14.64858,R,ugm-3,14.000,R,ugm-3 (BAM)
02-01-2020,05:00,0.78128,R,ugm-3,14.05869,R,ugm-3,15.25663,R,ugm-3,13.000,R,ugm-3 (BAM)
02-01-2020,06:00,1.13966,R,ugm-3,22.57471,R,ugm-3,24.32217,R,ugm-3,11.000,R,ugm-3 (BAM)
02-01-2020,07:00,2.50152,R,ugm-3,33.03459,R,ugm-3,36.87020,R,ugm-3,15.000,R,ugm-3 (BAM)
02-01-2020,08:00,3.03910,R,ugm-3,38.73308,R,ugm-3,43.39296,R,ugm-3,14.000,R,ugm-3 (BAM)
02-01-2020,09:00,3.32580,R,ugm-3,36.41403,R,ugm-3,41.51352,R,ugm-3,10.000,R,ugm-3 (BAM)
02-01-2020,10:00,4.22177,R,ugm-3,34.87441,R,ugm-3,41.34769,R,ugm-3,9.000,R,ugm-3 (BAM)
02-01-2020,11:00,3.46916,R,ugm-3,27.18396,R,ugm-3,32.50326,R,ugm-3,9.000,R,ugm-3 (BAM)
02-01-2020,12:00,3.57667,R,ugm-3,22.26523,R,ugm-3,27.74938,R,ugm-3,6.000,R,ugm-3 (BAM)
02-01-2020,13:00,3.11077,R,ugm-3,22.53738,R,ugm-3,27.30716,R,ugm-3,7.000,R,ugm-3 (BAM)
02-01-2020,14:00,2.60904,R,ugm-3,22.97503,R,ugm-3,26.97550,R,ugm-3,10.000,R,ugm-3 (BAM)
02-01-2020,15:00,1.53389,R,ugm-3,20.09081,R,ugm-3,22.44273,R,ugm-3,12.000,R,ugm-3 (BAM)
02-01-2020,16:00,1.96395,R,ugm-3,24.01943,R,ugm-3,27.03077,R,ugm-3,10.000,R,ugm-3 (BAM)
02-01-2020,17:00,1.64140,R,ugm-3,25.61955,R,ugm-3,28.13633,R,ugm-3,9.000,R,ugm-3 (BAM)
02-01-2020,18:00,1.17550,R,ugm-3,24.50976,R,ugm-3,26.31217,R,ugm-3,9.000,R,ugm-3 (BAM)
02-01-2020,19:00,1.46221,R,ugm-3,27.88430,R,ugm-3,30.12632,R,ugm-3,6.000,R,ugm-3 (BAM)
02-01-2020,20:00,1.31885,R,ugm-3,22.13412,R,ugm-3,24.15634,R,ugm-3,8.000,R,ugm-3 (BAM)
02-01-2020,21:00,0.78128,R,ugm-3,19.75229,R,ugm-3,20.95023,R,ugm-3,8.000,R,ugm-3 (BAM)
02-01-2020,22:00,0.81712,R,ugm-3,16.49124,R,ugm-3,17.74413,R,ugm-3,6.000,R,ugm-3 (BAM)
02-01-2020,23:00,1.03215,R,ugm-3,16.54847,R,ugm-3,18.13107,R,ugm-3,11.000,R,ugm-3 (BAM)
02-01-2020,24:00,0.35122,R,ugm-3,12.00950,R,ugm-3,12.54803,R,ugm-3,6.000,R,ugm-3 (BAM)
03-01-2020,01:00,0.38708,R,ugm-3,10.31645,R,ugm-3,10.90997,R,ugm-3,8.000,R,ugm-3 (BAM)
03-01-2020,02:00,0.43487,R,ugm-3,8.54771,R,ugm-3,9.21450,R,ugm-3,9.000,R,ugm-3 (BAM)
03-01-2020,03:00,0.38708,R,ugm-3,6.87022,R,ugm-3,7.46374,R,ugm-3,7.000,R,ugm-3 (BAM)
03-01-2020,04:00,0.38708,R,ugm-3,8.36297,R,ugm-3,8.95649,R,ugm-3,4.000,R,ugm-3 (BAM)
03-01-2020,05:00,0.42293,R,ugm-3,7.25757,R,ugm-3,7.90604,R,ugm-3,3.000,R,ugm-3 (BAM)
03-01-2020,06:00,0.49461,R,ugm-3,8.47454,R,ugm-3,9.23293,R,ugm-3,2.000,R,ugm-3 (BAM)
03-01-2020,07:00,0.99638,R,ugm-3,16.21936,R,ugm-3,17.74712,R,ugm-3,1.000,R,ugm-3 (BAM)
03-01-2020,08:00,0.92470,R,ugm-3,19.97821,R,ugm-3,21.39607,R,ugm-3,6.000,R,ugm-3 (BAM)
03-01-2020,09:00,2.28666,R,ugm-3,29.00258,R,ugm-3,32.50875,R,ugm-3,6.000,R,ugm-3 (BAM)
03-01-2020,10:00,8.27212,R,ugm-3,45.69931,R,ugm-3,58.38306,R,ugm-3,8.000,R,ugm-3 (BAM)
03-01-2020,11:00,10.45843,R,ugm-3,38.31107,R,ugm-3,54.34711,R,ugm-3,12.000,R,ugm-3 (BAM)
03-01-2020,12:00,7.80619,R,ugm-3,37.78897,R,ugm-3,49.75829,R,ugm-3,10.000,R,ugm-3 (BAM)
03-01-2020,13:00,8.91726,R,ugm-3,36.80407,R,ugm-3,50.47702,R,ugm-3,12.000,R,ugm-3 (BAM)
03-01-2020,14:00,11.82039,R,ugm-3,36.49920,R,ugm-3,54.62354,R,ugm-3,10.000,R,ugm-3 (BAM)
03-01-2020,15:00,7.37610,R,ugm-3,36.34753,R,ugm-3,47.65738,R,ugm-3,6.000,R,ugm-3 (BAM)
03-01-2020,16:00,8.77390,R,ugm-3,49.51876,R,ugm-3,62.97188,R,ugm-3,11.000,R,ugm-3 (BAM)
03-01-2020,17:00,9.23983,R,ugm-3,59.41944,R,ugm-3,73.58698,R,ugm-3,12.000,R,ugm-3 (BAM)
03-01-2020,18:00,13.75581,R,ugm-3,68.41769,R,ugm-3,89.50963,R,ugm-3,14.000,R,ugm-3 (BAM)
03-01-2020,19:00,11.85623,R,ugm-3,75.14513,R,ugm-3,93.32444,R,ugm-3,13.000,R,ugm-3 (BAM)
03-01-2020,20:00,12.32217,R,ugm-3,74.43071,R,ugm-3,93.32444,R,ugm-3,10.000,R,ugm-3 (BAM)
03-01-2020,21:00,5.90661,R,ugm-3,58.22759,R,ugm-3,67.28427,R,ugm-3,16.000,R,ugm-3 (BAM)
03-01-2020,22:00,4.04288,R,ugm-3,43.11701,R,ugm-3,49.31599,R,ugm-3,12.000,R,ugm-3 (BAM)
03-01-2020,23:00,3.50526,R,ugm-3,48.86188,R,ugm-3,54.23654,R,ugm-3,10.000,R,ugm-3 (BAM)
03-01-2020,24:00,2.28666,R,ugm-3,38.40137,R,ugm-3,41.90754,R,ugm-3,11.000,R,ugm-3 (BAM)
04-01-2020,01:00,1.10399,R,ugm-3,40.40617,R,ugm-3,42.09893,R,ugm-3,10.000,R,ugm-3 (BAM)
04-01-2020,02:00,1.00841,R,ugm-3,32.36888,R,ugm-3,33.91508,R,ugm-3,13.000,R,ugm-3 (BAM)
04-01-2020,03:00,0.60218,R,ugm-3,21.19521,R,ugm-3,22.11853,R,ugm-3,11.000,R,ugm-3 (BAM)
04-01-2020,04:00,0.63802,R,ugm-3,16.21887,R,ugm-3,17.19715,R,ugm-3,13.000,R,ugm-3 (BAM)
04-01-2020,05:00,0.60218,R,ugm-3,13.78550,R,ugm-3,14.70882,R,ugm-3,9.000,R,ugm-3 (BAM)
04-01-2020,06:00,0.60218,R,ugm-3,12.45839,R,ugm-3,13.38171,R,ugm-3,5.000,R,ugm-3 (BAM)
04-01-2020,07:00,1.03230,R,ugm-3,19.15328,R,ugm-3,20.73612,R,ugm-3,2.000,R,ugm-3 (BAM)
04-01-2020,08:00,1.74918,R,ugm-3,25.62968,R,ugm-3,28.31172,R,ugm-3,4.000,R,ugm-3 (BAM)
04-01-2020,09:00,2.93202,R,ugm-3,28.51620,R,ugm-3,33.01190,R,ugm-3,6.000,R,ugm-3 (BAM)
04-01-2020,10:00,4.22240,R,ugm-3,28.47302,R,ugm-3,34.94727,R,ugm-3,8.000,R,ugm-3 (BAM)
04-01-2020,11:00,6.08627,R,ugm-3,29.20938,R,ugm-3,38.54153,R,ugm-3,8.000,R,ugm-3 (BAM)
04-01-2020,12:00,6.94652,R,ugm-3,35.96361,R,ugm-3,46.61480,R,ugm-3,8.000,R,ugm-3 (BAM)
04-01-2020,13:00,10.67427,R,ugm-3,42.13651,R,ugm-3,58.50351,R,ugm-3,6.000,R,ugm-3 (BAM)
04-01-2020,14:00,9.88571,R,ugm-3,38.86662,R,ugm-3,54.02450,R,ugm-3,4.000,R,ugm-3 (BAM)
04-01-2020,15:00,10.38752,R,ugm-3,37.93130,R,ugm-3,53.85861,R,ugm-3,7.000,R,ugm-3 (BAM)
04-01-2020,16:00,5.69199,R,ugm-3,38.71664,R,ugm-3,47.44424,R,ugm-3,8.000,R,ugm-3 (BAM)
04-01-2020,17:00,7.08990,R,ugm-3,45.25474,R,ugm-3,56.12576,R,ugm-3,7.000,R,ugm-3 (BAM)
04-01-2020,18:00,4.90343,R,ugm-3,48.38610,R,ugm-3,55.90458,R,ugm-3,7.000,R,ugm-3 (BAM)
04-01-2020,19:00,3.32630,R,ugm-3,57.21869,R,ugm-3,62.31895,R,ugm-3,11.000,R,ugm-3 (BAM)
04-01-2020,20:00,3.32630,R,ugm-3,59.43055,R,ugm-3,64.53080,R,ugm-3,16.000,R,ugm-3 (BAM)
04-01-2020,21:00,4.29408,R,ugm-3,59.16315,R,ugm-3,65.74732,R,ugm-3,21.000,R,ugm-3 (BAM)
04-01-2020,22:00,2.82449,R,ugm-3,50.35724,R,ugm-3,54.68806,R,ugm-3,18.000,R,ugm-3 (BAM)
04-01-2020,23:00,2.03593,R,ugm-3,48.46976,R,ugm-3,51.59146,R,ugm-3,17.000,R,ugm-3 (BAM)
04-01-2020,24:00,1.53411,R,ugm-3,41.94008,R,ugm-3,44.29235,R,ugm-3,18.000,R,ugm-3 (BAM)
05-01-2020,01:00,0.91289,R,ugm-3,33.92213,R,ugm-3,35.32188,R,ugm-3,16.000,R,ugm-3 (BAM)
05-01-2020,02:00,0.57832,R,ugm-3,17.62221,R,ugm-3,18.50896,R,ugm-3,11.000,R,ugm-3 (BAM)
05-01-2020,03:00,0.38714,R,ugm-3,14.72606,R,ugm-3,15.31966,R,ugm-3,12.000,R,ugm-3 (BAM)
05-01-2020,04:00,0.27960,R,ugm-3,11.51730,R,ugm-3,11.94602,R,ugm-3,7.000,R,ugm-3 (BAM)
05-01-2020,05:00,0.67391,R,ugm-3,9.69598,R,ugm-3,10.72930,R,ugm-3,4.000,R,ugm-3 (BAM)
05-01-2020,06:00,0.31545,R,ugm-3,8.42053,R,ugm-3,8.90421,R,ugm-3,3.000,R,ugm-3 (BAM)
05-01-2020,07:00,0.49468,R,ugm-3,10.68977,R,ugm-3,11.44827,R,ugm-3,4.000,R,ugm-3 (BAM)
05-01-2020,08:00,0.60222,R,ugm-3,15.17055,R,ugm-3,16.09394,R,ugm-3,4.000,R,ugm-3 (BAM)
05-01-2020,09:00,0.78145,R,ugm-3,17.38449,R,ugm-3,18.58270,R,ugm-3,5.000,R,ugm-3 (BAM)
05-01-2020,10:00,1.03238,R,ugm-3,17.71871,R,ugm-3,19.30167,R,ugm-3,5.000,R,ugm-3 (BAM)
05-01-2020,11:00,0.96068,R,ugm-3,17.22028,R,ugm-3,18.69331,R,ugm-3,2.000,R,ugm-3 (BAM)
05-01-2020,12:00,1.10407,R,ugm-3,15.67309,R,ugm-3,17.36597,R,ugm-3,0.000,R,ugm-3 (BAM)
05-01-2020,13:00,1.21161,R,ugm-3,16.50370,R,ugm-3,18.36148,R,ugm-3,3.000,R,ugm-3 (BAM)
05-01-2020,14:00,1.35500,R,ugm-3,17.00282,R,ugm-3,19.08045,R,ugm-3,3.000,R,ugm-3 (BAM)
05-01-2020,15:00,1.89269,R,ugm-3,22.92565,R,ugm-3,25.82774,R,ugm-3,3.000,R,ugm-3 (BAM)
05-01-2020,16:00,1.28330,R,ugm-3,18.16355,R,ugm-3,20.13126,R,ugm-3,3.000,R,ugm-3 (BAM)
05-01-2020,17:00,1.46254,R,ugm-3,19.99035,R,ugm-3,22.23287,R,ugm-3,3.000,R,ugm-3 (BAM)
05-01-2020,18:00,0.96068,R,ugm-3,24.24410,R,ugm-3,25.71713,R,ugm-3,5.000,R,ugm-3 (BAM)
05-01-2020,19:00,1.06822,R,ugm-3,29.55447,R,ugm-3,31.19239,R,ugm-3,6.000,R,ugm-3 (BAM)
05-01-2020,20:00,0.70976,R,ugm-3,27.89188,R,ugm-3,28.98016,R,ugm-3,8.000,R,ugm-3 (BAM)
05-01-2020,21:00,0.67391,R,ugm-3,23.41178,R,ugm-3,24.44510,R,ugm-3,7.000,R,ugm-3 (BAM)
05-01-2020,22:00,0.81730,R,ugm-3,30.76880,R,ugm-3,32.02197,R,ugm-3,6.000,R,ugm-3 (BAM)
05-01-2020,23:00,0.60222,R,ugm-3,32.64714,R,ugm-3,33.57053,R,ugm-3,12.000,R,ugm-3 (BAM)
05-01-2020,24:00,0.60222,R,ugm-3,22.19437,R,ugm-3,23.11776,R,ugm-3,8.000,R,ugm-3 (BAM)
06-01-2020,01:00,0.51145,R,ugm-3,20.97302,R,ugm-3,21.75723,R,ugm-3,9.000,R,ugm-3 (BAM)
06-01-2020,02:00,0.41585,R,ugm-3,10.64663,R,ugm-3,11.28426,R,ugm-3,6.000,R,ugm-3 (BAM)
06-01-2020,03:00,0.23660,R,ugm-3,8.98544,R,ugm-3,9.34823,R,ugm-3,6.000,R,ugm-3 (BAM)
06-01-2020,04:00,0.34415,R,ugm-3,8.54397,R,ugm-3,9.07166,R,ugm-3,6.000,R,ugm-3 (BAM)
06-01-2020,05:00,0.41585,R,ugm-3,7.71494,R,ugm-3,8.35256,R,ugm-3,7.000,R,ugm-3 (BAM)
06-01-2020,06:00,0.45170,R,ugm-3,10.42572,R,ugm-3,11.11831,R,ugm-3,8.000,R,ugm-3 (BAM)
06-01-2020,07:00,0.77434,R,ugm-3,16.23691,R,ugm-3,17.42422,R,ugm-3,8.000,R,ugm-3 (BAM)
06-01-2020,08:00,1.20453,R,ugm-3,23.65328,R,ugm-3,25.50021,R,ugm-3,13.000,R,ugm-3 (BAM)
06-01-2020,09:00,1.99321,R,ugm-3,25.98415,R,ugm-3,29.04036,R,ugm-3,9.000,R,ugm-3 (BAM)
06-01-2020,10:00,3.28378,R,ugm-3,28.65176,R,ugm-3,33.68682,R,ugm-3,10.000,R,ugm-3 (BAM)
06-01-2020,11:00,4.82529,R,ugm-3,28.72200,R,ugm-3,36.12068,R,ugm-3,9.000,R,ugm-3 (BAM)
06-01-2020,12:00,3.14038,R,ugm-3,19.68935,R,ugm-3,24.50454,R,ugm-3,7.000,R,ugm-3 (BAM)
06-01-2020,13:00,4.25171,R,ugm-3,20.41920,R,ugm-3,26.93839,R,ugm-3,7.000,R,ugm-3 (BAM)
06-01-2020,14:00,3.35548,R,ugm-3,20.46584,R,ugm-3,25.61083,R,ugm-3,9.000,R,ugm-3 (BAM)
06-01-2020,15:00,3.64227,R,ugm-3,27.82551,R,ugm-3,33.41025,R,ugm-3,10.000,R,ugm-3 (BAM)
06-01-2020,16:00,3.71397,R,ugm-3,32.63861,R,ugm-3,38.33328,R,ugm-3,13.000,R,ugm-3 (BAM)
06-01-2020,17:00,2.74604,R,ugm-3,35.83750,R,ugm-3,40.04805,R,ugm-3,10.000,R,ugm-3 (BAM)
06-01-2020,18:00,2.20831,R,ugm-3,33.78564,R,ugm-3,37.17167,R,ugm-3,10.000,R,ugm-3 (BAM)
06-01-2020,19:00,2.96114,R,ugm-3,36.55868,R,ugm-3,41.09903,R,ugm-3,12.000,R,ugm-3 (BAM)
06-01-2020,20:00,2.99699,R,ugm-3,39.87793,R,ugm-3,44.47324,R,ugm-3,13.000,R,ugm-3 (BAM)
06-01-2020,21:00,2.67435,R,ugm-3,40.42795,R,ugm-3,44.52856,R,ugm-3,11.000,R,ugm-3 (BAM)
06-01-2020,22:00,2.06491,R,ugm-3,36.60532,R,ugm-3,39.77147,R,ugm-3,9.000,R,ugm-3 (BAM)
06-01-2020,23:00,1.34793,R,ugm-3,36.37712,R,ugm-3,38.44391,R,ugm-3,12.000,R,ugm-3 (BAM)
06-01-2020,24:00,0.66679,R,ugm-3,28.57111,R,ugm-3,29.59351,R,ugm-3,12.000,R,ugm-3 (BAM)
07-01-2020,01:00,0.85088,R,ugm-3,26.20995,R,ugm-3,27.51462,R,ugm-3,9.000,R,ugm-3 (BAM)
07-01-2020,02:00,1.13770,R,ugm-3,38.08906,R,ugm-3,39.83350,R,ugm-3,10.000,R,ugm-3 (BAM)
07-01-2020,03:00,0.70748,R,ugm-3,29.45424,R,ugm-3,30.53902,R,ugm-3,8.000,R,ugm-3 (BAM)
07-01-2020,04:00,0.59992,R,ugm-3,21.26518,R,ugm-3,22.18505,R,ugm-3,9.000,R,ugm-3 (BAM)
07-01-2020,05:00,0.99429,R,ugm-3,29.29108,R,ugm-3,30.81564,R,ugm-3,8.000,R,ugm-3 (BAM)
07-01-2020,06:00,1.17355,R,ugm-3,31.83776,R,ugm-3,33.63718,R,ugm-3,8.000,R,ugm-3 (BAM)
07-01-2020,07:00,2.46421,R,ugm-3,40.42571,R,ugm-3,44.20412,R,ugm-3,11.000,R,ugm-3 (BAM)
07-01-2020,08:00,4.65117,R,ugm-3,52.39726,R,ugm-3,59.52896,R,ugm-3,9.000,R,ugm-3 (BAM)
07-01-2020,09:00,11.57057,R,ugm-3,66.57295,R,ugm-3,84.31425,R,ugm-3,8.000,R,ugm-3 (BAM)
07-01-2020,10:00,8.05709,R,ugm-3,51.93281,R,ugm-3,64.28685,R,ugm-3,12.000,R,ugm-3 (BAM)
07-01-2020,11:00,6.08525,R,ugm-3,42.01038,R,ugm-3,51.34096,R,ugm-3,17.000,R,ugm-3 (BAM)
07-01-2020,12:00,5.40406,R,ugm-3,29.72169,R,ugm-3,38.00780,R,ugm-3,14.000,R,ugm-3 (BAM)
07-01-2020,13:00,4.57947,R,ugm-3,24.90037,R,ugm-3,31.92213,R,ugm-3,16.000,R,ugm-3 (BAM)
07-01-2020,14:00,3.07369,R,ugm-3,22.61728,R,ugm-3,27.33021,R,ugm-3,12.000,R,ugm-3 (BAM)
07-01-2020,15:00,3.21710,R,ugm-3,26.43606,R,ugm-3,31.36888,R,ugm-3,8.000,R,ugm-3 (BAM)
07-01-2020,16:00,2.24910,R,ugm-3,25.65201,R,ugm-3,29.10059,R,ugm-3,6.000,R,ugm-3 (BAM)
07-01-2020,17:00,3.03784,R,ugm-3,30.19636,R,ugm-3,34.85431,R,ugm-3,5.000,R,ugm-3 (BAM)
07-01-2020,18:00,2.85858,R,ugm-3,27.26240,R,ugm-3,31.64550,R,ugm-3,5.000,R,ugm-3 (BAM)
07-01-2020,19:00,1.46036,R,ugm-3,24.26115,R,ugm-3,26.50034,R,ugm-3,3.000,R,ugm-3 (BAM)
07-01-2020,20:00,1.81888,R,ugm-3,24.81792,R,ugm-3,27.60683,R,ugm-3,4.000,R,ugm-3 (BAM)
07-01-2020,21:00,1.38866,R,ugm-3,21.16229,R,ugm-3,23.29153,R,ugm-3,6.000,R,ugm-3 (BAM)
07-01-2020,22:00,0.95844,R,ugm-3,19.77495,R,ugm-3,21.24453,R,ugm-3,6.000,R,ugm-3 (BAM)
07-01-2020,23:00,0.85088,R,ugm-3,17.45027,R,ugm-3,18.75494,R,ugm-3,5.000,R,ugm-3 (BAM)
07-01-2020,24:00,0.67162,R,ugm-3,14.84827,R,ugm-3,15.87808,R,ugm-3,3.000,R,ugm-3 (BAM)
08-01-2020,01:00,0.37767,R,ugm-3,10.85654,R,ugm-3,11.43562,R,ugm-3,3.000,R,ugm-3 (BAM)
08-01-2020,02:00,0.28206,R,ugm-3,9.67513,R,ugm-3,10.10761,R,ugm-3,0.000,R,ugm-3 (BAM)
08-01-2020,03:00,0.31791,R,ugm-3,9.63860,R,ugm-3,10.12606,R,ugm-3,2.000,R,ugm-3 (BAM)
08-01-2020,04:00,0.42547,R,ugm-3,6.87299,R,ugm-3,7.52538,R,ugm-3,2.000,R,ugm-3 (BAM)
08-01-2020,05:00,0.42547,R,ugm-3,6.70699,R,ugm-3,7.35938,R,ugm-3,3.000,R,ugm-3 (BAM)
08-01-2020,06:00,0.42547,R,ugm-3,9.30767,R,ugm-3,9.96006,R,ugm-3,5.000,R,ugm-3 (BAM)
08-01-2020,07:00,1.14256,R,ugm-3,19.10888,R,ugm-3,20.86078,R,ugm-3,5.000,R,ugm-3 (BAM)
08-01-2020,08:00,1.96722,R,ugm-3,31.34584,R,ugm-3,34.36219,R,ugm-3,6.000,R,ugm-3 (BAM)
08-01-2020,09:00,3.54481,R,ugm-3,37.44827,R,ugm-3,42.88357,R,ugm-3,9.000,R,ugm-3 (BAM)
08-01-2020,10:00,6.26975,R,ugm-3,39.68879,R,ugm-3,49.30227,R,ugm-3,13.000,R,ugm-3 (BAM)
08-01-2020,11:00,12.50843,R,ugm-3,42.84968,R,ugm-3,62.02901,R,ugm-3,19.000,R,ugm-3 (BAM)
08-01-2020,12:00,8.95884,R,ugm-3,38.77493,R,ugm-3,52.51162,R,ugm-3,17.000,R,ugm-3 (BAM)
08-01-2020,13:00,10.78742,R,ugm-3,43.49652,R,ugm-3,60.03700,R,ugm-3,21.000,R,ugm-3 (BAM)
08-01-2020,14:00,9.49666,R,ugm-3,41.49164,R,ugm-3,56.05298,R,ugm-3,17.000,R,ugm-3 (BAM)
08-01-2020,15:00,11.11011,R,ugm-3,43.49974,R,ugm-3,60.53500,R,ugm-3,18.000,R,ugm-3 (BAM)
08-01-2020,16:00,4.65630,R,ugm-3,40.28137,R,ugm-3,47.42093,R,ugm-3,20.000,R,ugm-3 (BAM)
08-01-2020,17:00,6.77172,R,ugm-3,49.65385,R,ugm-3,60.03700,R,ugm-3,19.000,R,ugm-3 (BAM)
08-01-2020,18:00,9.17397,R,ugm-3,62.90254,R,ugm-3,76.96909,R,ugm-3,15.000,R,ugm-3 (BAM)
08-01-2020,19:00,9.13811,R,ugm-3,64.28552,R,ugm-3,78.29710,R,ugm-3,22.000,R,ugm-3 (BAM)
08-01-2020,20:00,12.25745,R,ugm-3,65.58930,R,ugm-3,84.38380,R,ugm-3,23.000,R,ugm-3 (BAM)
08-01-2020,21:00,17.52806,R,ugm-3,68.57455,R,ugm-3,95.45053,R,ugm-3,22.000,R,ugm-3 (BAM)
08-01-2020,22:00,10.67985,R,ugm-3,53.84284,R,ugm-3,70.21839,R,ugm-3,19.000,R,ugm-3 (BAM)
08-01-2020,23:00,2.68431,R,ugm-3,29.08431,R,ugm-3,33.20018,R,ugm-3,13.000,R,ugm-3 (BAM)
08-01-2020,24:00,1.21427,R,ugm-3,23.59162,R,ugm-3,25.45347,R,ugm-3,7.000,R,ugm-3 (BAM)
09-01-2020,01:00,0.86057,R,ugm-3,14.17651,R,ugm-3,15.49603,R,ugm-3,4.000,R,ugm-3 (BAM)
09-01-2020,02:00,0.47810,R,ugm-3,8.85971,R,ugm-3,9.59278,R,ugm-3,3.000,R,ugm-3 (BAM)
09-01-2020,03:00,0.25100,R,ugm-3,8.47001,R,ugm-3,8.85488,R,ugm-3,2.000,R,ugm-3 (BAM)
09-01-2020,04:00,0.39443,R,ugm-3,7.19858,R,ugm-3,7.80336,R,ugm-3,0.000,R,ugm-3 (BAM)
09-01-2020,05:00,0.39443,R,ugm-3,6.81118,R,ugm-3,7.41596,R,ugm-3,2.000,R,ugm-3 (BAM)
09-01-2020,06:00,0.39443,R,ugm-3,8.80352,R,ugm-3,9.40831,R,ugm-3,3.000,R,ugm-3 (BAM)
09-01-2020,07:00,0.93229,R,ugm-3,15.83752,R,ugm-3,17.26701,R,ugm-3,4.000,R,ugm-3 (BAM)
09-01-2020,08:00,1.29086,R,ugm-3,21.04339,R,ugm-3,23.02268,R,ugm-3,7.000,R,ugm-3 (BAM)
09-01-2020,09:00,1.54186,R,ugm-3,21.87607,R,ugm-3,24.24022,R,ugm-3,7.000,R,ugm-3 (BAM)
09-01-2020,10:00,3.58572,R,ugm-3,26.15816,R,ugm-3,31.65618,R,ugm-3,8.000,R,ugm-3 (BAM)
09-01-2020,11:00,5.12757,R,ugm-3,24.90087,R,ugm-3,32.76304,R,ugm-3,13.000,R,ugm-3 (BAM)
09-01-2020,12:00,4.76900,R,ugm-3,23.79038,R,ugm-3,31.10275,R,ugm-3,16.000,R,ugm-3 (BAM)
09-01-2020,13:00,4.66143,R,ugm-3,22.18435,R,ugm-3,29.33177,R,ugm-3,9.000,R,ugm-3 (BAM)
09-01-2020,14:00,4.94829,R,ugm-3,22.51931,R,ugm-3,30.10658,R,ugm-3,6.000,R,ugm-3 (BAM)
09-01-2020,15:00,2.33072,R,ugm-3,29.79810,R,ugm-3,33.37181,R,ugm-3,10.000,R,ugm-3 (BAM)
09-01-2020,16:00,5.16343,R,ugm-3,45.65484,R,ugm-3,53.57199,R,ugm-3,,,
09-01-2020,17:00,,,,,,,,,,,,
09-01-2020,18:00,2.11557,R,ugm-3,31.62224,R,ugm-3,34.86607,R,ugm-3,5.000,R,ugm-3 (BAM)
09-01-2020,19:00,2.22314,R,ugm-3,25.53560,R,ugm-3,28.94437,R,ugm-3,9.000,R,ugm-3 (BAM)
09-01-2020,20:00,1.39843,R,ugm-3,34.38213,R,ugm-3,36.52636,R,ugm-3,13.000,R,ugm-3 (BAM)
09-01-2020,21:00,1.57772,R,ugm-3,34.82669,R,ugm-3,37.24582,R,ugm-3,15.000,R,ugm-3 (BAM)
09-01-2020,22:00,1.03986,R,ugm-3,21.81565,R,ugm-3,23.41008,R,ugm-3,13.000,R,ugm-3 (BAM)
09-01-2020,23:00,1.57772,R,ugm-3,21.54438,R,ugm-3,23.96351,R,ugm-3,8.000,R,ugm-3 (BAM)
09-01-2020,24:00,2.29486,R,ugm-3,28.96759,R,ugm-3,32.48632,R,ugm-3,7.000,R,ugm-3 (BAM)
10-01-2020,01:00,1.28281,R,ugm-3,22.13512,R,ugm-3,24.10207,R,ugm-3,10.000,R,ugm-3 (BAM)
10-01-2020,02:00,0.94757,R,ugm-3,20.57903,R,ugm-3,22.03195,R,ugm-3,12.000,R,ugm-3 (BAM)
10-01-2020,03:00,1.03138,R,ugm-3,22.76092,R,ugm-3,24.34235,R,ugm-3,11.000,R,ugm-3 (BAM)
10-01-2020,04:00,0.63627,R,ugm-3,14.55026,R,ugm-3,15.52587,R,ugm-3,6.000,R,ugm-3 (BAM)
10-01-2020,05:00,0.67219,R,ugm-3,12.38811,R,ugm-3,13.41879,R,ugm-3,5.000,R,ugm-3 (BAM)
10-01-2020,06:00,1.10322,R,ugm-3,18.15936,R,ugm-3,19.85093,R,ugm-3,8.000,R,ugm-3 (BAM)
10-01-2020,07:00,3.83303,R,ugm-3,30.71946,R,ugm-3,36.59669,R,ugm-3,9.000,R,ugm-3 (BAM)
10-01-2020,08:00,6.31142,R,ugm-3,47.43565,R,ugm-3,57.11302,R,ugm-3,7.000,R,ugm-3 (BAM)
10-01-2020,09:00,5.98815,R,ugm-3,46.54508,R,ugm-3,55.72678,R,ugm-3,6.000,R,ugm-3 (BAM)
10-01-2020,10:00,11.59146,R,ugm-3,50.09691,R,ugm-3,67.87023,R,ugm-3,7.000,R,ugm-3 (BAM)
10-01-2020,11:00,10.51390,R,ugm-3,43.04356,R,ugm-3,59.16465,R,ugm-3,4.000,R,ugm-3 (BAM)
10-01-2020,12:00,11.91473,R,ugm-3,41.28380,R,ugm-3,59.55280,R,ugm-3,6.000,R,ugm-3 (BAM)
10-01-2020,13:00,9.61594,R,ugm-3,37.26743,R,ugm-3,52.01166,R,ugm-3,8.000,R,ugm-3 (BAM)
10-01-2020,14:00,9.75961,R,ugm-3,39.59782,R,ugm-3,54.56234,R,ugm-3,8.000,R,ugm-3 (BAM)
10-01-2020,15:00,9.04124,R,ugm-3,39.81211,R,ugm-3,53.67515,R,ugm-3,9.000,R,ugm-3 (BAM)
10-01-2020,16:00,7.53265,R,ugm-3,40.29541,R,ugm-3,51.84531,R,ugm-3,7.000,R,ugm-3 (BAM)
10-01-2020,17:00,3.86895,R,ugm-3,44.47132,R,ugm-3,50.40363,R,ugm-3,5.000,R,ugm-3 (BAM)
10-01-2020,18:00,7.35306,R,ugm-3,63.74868,R,ugm-3,75.02322,R,ugm-3,12.000,R,ugm-3 (BAM)
10-01-2020,19:00,8.50246,R,ugm-3,73.63070,R,ugm-3,86.66762,R,ugm-3,11.000,R,ugm-3 (BAM)
10-01-2020,20:00,7.96368,R,ugm-3,68.35737,R,ugm-3,80.56817,R,ugm-3,11.000,R,ugm-3 (BAM)
10-01-2020,21:00,3.65344,R,ugm-3,57.11156,R,ugm-3,62.71342,R,ugm-3,12.000,R,ugm-3 (BAM)
10-01-2020,22:00,2.71955,R,ugm-3,43.68302,R,ugm-3,47.85295,R,ugm-3,12.000,R,ugm-3 (BAM)
10-01-2020,23:00,1.42648,R,ugm-3,32.96776,R,ugm-3,35.15501,R,ugm-3,7.000,R,ugm-3 (BAM)
10-01-2020,24:00,0.92362,R,ugm-3,26.19767,R,ugm-3,27.61387,R,ugm-3,5.000,R,ugm-3 (BAM)
11-01-2020,01:00,0.74702,R,ugm-3,22.63260,R,ugm-3,23.77801,R,ugm-3,3.000,R,ugm-3 (BAM)
11-01-2020,02:00,0.45918,R,ugm-3,19.22206,R,ugm-3,19.92612,R,ugm-3,3.000,R,ugm-3 (BAM)
11-01-2020,03:00,0.44718,R,ugm-3,14.92560,R,ugm-3,15.61126,R,ugm-3,5.000,R,ugm-3 (BAM)
11-01-2020,04:00,0.41120,R,ugm-3,11.20295,R,ugm-3,11.83345,R,ugm-3,7.000,R,ugm-3 (BAM)
11-01-2020,05:00,0.44718,R,ugm-3,10.98111,R,ugm-3,11.66678,R,ugm-3,6.000,R,ugm-3 (BAM)
11-01-2020,06:00,0.37522,R,ugm-3,13.20258,R,ugm-3,13.77791,R,ugm-3,5.000,R,ugm-3 (BAM)
11-01-2020,07:00,0.55512,R,ugm-3,15.53788,R,ugm-3,16.38905,R,ugm-3,6.000,R,ugm-3 (BAM)
11-01-2020,08:00,0.84296,R,ugm-3,17.98544,R,ugm-3,19.27797,R,ugm-3,6.000,R,ugm-3 (BAM)
11-01-2020,09:00,1.09483,R,ugm-3,21.26596,R,ugm-3,22.94467,R,ugm-3,12.000,R,ugm-3 (BAM)
11-01-2020,10:00,1.41865,R,ugm-3,21.10278,R,ugm-3,23.27801,R,ugm-3,8.000,R,ugm-3 (BAM)
11-01-2020,11:00,1.49061,R,ugm-3,19.60354,R,ugm-3,21.88910,R,ugm-3,10.000,R,ugm-3 (BAM)
11-01-2020,12:00,1.77845,R,ugm-3,20.55109,R,ugm-3,23.27801,R,ugm-3,7.000,R,ugm-3 (BAM)
11-01-2020,13:00,2.28217,R,ugm-3,18.05649,R,ugm-3,21.55577,R,ugm-3,5.000,R,ugm-3 (BAM)
11-01-2020,14:00,2.49805,R,ugm-3,18.28104,R,ugm-3,22.11133,R,ugm-3,6.000,R,ugm-3 (BAM)
11-01-2020,15:00,1.74247,R,ugm-3,19.82848,R,ugm-3,22.50022,R,ugm-3,8.000,R,ugm-3 (BAM)
11-01-2020,16:00,1.31071,R,ugm-3,17.10158,R,ugm-3,19.11130,R,ugm-3,9.000,R,ugm-3 (BAM)
11-01-2020,17:00,1.31071,R,ugm-3,20.65717,R,ugm-3,22.66689,R,ugm-3,9.000,R,ugm-3 (BAM)
11-01-2020,18:00,0.84296,R,ugm-3,17.92988,R,ugm-3,19.22241,R,ugm-3,8.000,R,ugm-3 (BAM)
11-01-2020,19:00,0.98688,R,ugm-3,17.09809,R,ugm-3,18.61129,R,ugm-3,7.000,R,ugm-3 (BAM)
11-01-2020,20:00,0.87894,R,ugm-3,15.31914,R,ugm-3,16.66683,R,ugm-3,8.000,R,ugm-3 (BAM)
11-01-2020,21:00,0.66306,R,ugm-3,13.37235,R,ugm-3,14.38903,R,ugm-3,10.000,R,ugm-3 (BAM)
11-01-2020,22:00,0.91492,R,ugm-3,16.59731,R,ugm-3,18.00018,R,ugm-3,10.000,R,ugm-3 (BAM)
11-01-2020,23:00,1.05884,R,ugm-3,18.70999,R,ugm-3,20.33353,R,ugm-3,8.000,R,ugm-3 (BAM)
11-01-2020,24:00,0.98688,R,ugm-3,16.48698,R,ugm-3,18.00018,R,ugm-3,5.000,R,ugm-3 (BAM)
12-01-2020,01:00,0.93022,R,ugm-3,16.16309,R,ugm-3,17.58940,R,ugm-3,5.000,R,ugm-3 (BAM)
12-01-2020,02:00,0.93022,R,ugm-3,17.79586,R,ugm-3,19.22217,R,ugm-3,7.000,R,ugm-3 (BAM)
12-01-2020,03:00,0.65390,R,ugm-3,12.24508,R,ugm-3,13.24771,R,ugm-3,5.000,R,ugm-3 (BAM)
12-01-2020,04:00,0.72598,R,ugm-3,12.13456,R,ugm-3,13.24771,R,ugm-3,5.000,R,ugm-3 (BAM)
12-01-2020,05:00,0.54577,R,ugm-3,10.46268,R,ugm-3,11.29952,R,ugm-3,3.000,R,ugm-3 (BAM)
12-01-2020,06:00,0.58182,R,ugm-3,11.85465,R,ugm-3,12.74675,R,ugm-3,1.000,R,ugm-3 (BAM)
12-01-2020,07:00,1.08640,R,ugm-3,18.76241,R,ugm-3,20.42820,R,ugm-3,4.000,R,ugm-3 (BAM)